SCP
0 0 0 0 0 0 0 0 0 0 0 0 0 0 0 0 0 0 0 0 0 0 0 0 0 0 0 0 0 0 0 0 0 0 0 0 0 0 0 0 0 0 0
0 0 0 0 0 0 0 0 0 0 0 0 0 0 0 0 0 0 0 0 0 0 0 0 0 1 1 1 1 0 0 0 0 0 0 1 1 0 0 0 0 0 0
0 0 0 0 0 0 0 0 0 0 0 0 0 0 0 0 0 0 0 0 0 0 0 0 0 0 1 1 1 1 1 0 1 1 1 1 1 1 1 0 0 0 0
0 0 0 0 0 0 0 0 0 0 0 0 0 0 0 0 0 0 0 0 0 0 0 0 0 0 0 0 1 1 1 1 1 1 1 1 1 1 1 1 1 0 0
0 0 0 0 0 0 0 0 0 0 0 0 0 0 0 0 0 0 0 0 0 0 0 0 0 0 0 0 0 0 0 1 1 1 1 1 1 1 1 1 1 1 1
0 0 0 0 0 0 0 0 0 0 0 0 0 0 0 0 0 0 0 0 0 0 0 0 0 0 0 0 0 0 0 1 1 1 1 1 1 1 1 1 1 1 1
0 0 0 0 0 0 0 0 0 0 0 0 0 0 0 0 0 0 0 0 0 0 0 0 0 0 0 0 0 0 0 0 1 1 1 1 1 1 1 1 1 1 1
0 0 0 0 0 0 0 0 0 0 0 0 0 0 0 0 0 0 0 0 0 0 0 0 0 0 0 0 0 0 0 0 0 1 1 1 1 1 1 1 1 1 1
0 0 0 0 0 0 0 0 0 0 0 1 0 0 0 0 0 0 0 0 0 0 0 0 0 0 0 0 0 0 0 0 0 0 1 1 1 1 1 1 1 1 1
0 0 0 0 0 0 0 0 0 0 0 0 1 0 0 0 0 0 0 0 0 0 0 0 0 0 0 0 0 0 0 0 0 0 0 1 1 1 1 1 1 1 1
0 0 0 0 0 0 0 0 0 0 0 0 0 0 0 0 0 0 0 0 0 0 0 0 0 0 0 0 0 0 0 0 0 0 0 0 1 1 1 1 1 1 1
0 0 0 0 0 0 0 0 0 0 0 0 0 0 0 0 0 0 0 0 0 0 0 0 0 0 0 0 0 0 0 0 0 0 0 0 0 1 1 1 1 1 1
0 0 0 0 0 0 0 0 0 0 0 0 0 0 0 0 0 0 0 0 0 0 0 0 0 0 0 0 0 0 0 0 0 0 0 0 0 1 1 1 1 1 1
0 0 0 0 0 0 0 0 0 0 0 0 0 0 0 0 0 0 0 0 0 0 0 0 0 0 0 0 0 0 0 0 0 0 0 0 0 0 1 1 0 0 0
0 0 0 0 0 0 0 0 0 0 0 0 0 0 0 0 0 0 0 0 0 0 0 0 0 0 0 0 0 0 0 0 0 0 0 0 0 0 0 0 0 0 0
0 0 0 0 0 0 0 0 0 0 0 0 0 0 0 0 0 0 0 0 0 0 0 0 0 0 0 0 0 0 0 0 0 0 0 0 0 0 0 0 0 0 0
0 0 0 0 0 0 0 0 0 0 0 0 0 0 0 0 0 0 0 0 0 0 0 0 0 0 0 0 0 0 0 0 0 0 0 0 0 0 0 0 0 0 0
0 0 0 0 0 0 0 0 0 0 0 0 0 0 0 0 0 0 0 0 0 0 0 0 0 0 0 0 0 0 0 0 0 0 0 0 0 0 0 0 0 0 0
0 0 0 0 0 0 0 0 0 0 0 0 0 0 0 0 0 0 0 0 0 0 0 0 0 0 0 0 0 0 0 0 0 0 0 0 0 0 0 0 0 0 0
0 0 0 0 0 0 0 0 0 0 0 0 0 0 0 0 0 0 0 0 0 0 0 0 0 0 0 0 0 0 0 0 0 0 0 0 0 0 0 0 0 0 0
0 0 0 0 0 0 0 0 0 0 0 0 0 0 0 0 0 0 0 1 0 0 0 0 0 0 0 0 0 0 0 0 0 0 0 0 0 0 0 0 0 0 0
0 0 0 0 0 0 0 0 0 0 0 0 0 0 0 0 0 0 0 0 0 0 0 0 0 0 0 0 0 0 0 0 0 0 0 0 0 0 0 0 0 0 0
0 0 0 0 0 0 0 0 0 0 0 0 0 0 0 0 0 0 0 0 0 0 0 0 0 0 0 0 0 0 0 0 0 0 0 0 0 0 0 0 0 0 0
0 0 0 0 0 0 0 0 0 0 0 0 0 0 0 0 0 0 0 0 0 0 0 0 0 0 0 0 0 0 0 0 0 0 0 0 0 0 0 0 0 0 0
0 0 0 0 0 0 0 0 0 0 0 0 0 0 0 0 0 0 0 0 0 0 0 0 0 0 0 0 0 0 0 0 0 0 0 0 0 0 0 0 0 0 0
0 0 0 0 0 0 0 0 0 0 0 0 0 0 0 0 0 0 0 0 0 0 0 0 0 0 0 0 0 0 0 0 0 0 0 0 0 0 0 0 0 0 0
Wind_Speed
2 2 2 3 3 3 3 3 3 3 3 3 3 3 3 3 3 3 3 9 10 11 11 11 10 10 11 11 11 10 10 10 9 9 10 10 10 10 11 11 11 11 11
2 2 2 2 3 3 2 2 2 2 2 2 3 3 3 3 3 3 3 5 10 11 11 11 11 11 11 12 12 12 11 11 10 10 10 10 10 10 11 11 12 11 11
2 2 2 2 2 2 3 2 2 2 2 2 3 3 3 3 3 4 4 3 4 9 12 12 12 12 12 13 13 13 13 12 11 11 10 10 11 11 11 12 12 12 12
2 1 1 2 2 2 2 2 2 2 2 2 2 2 2 2 3 3 3 4 4 4 8 13 13 13 13 13 13 13 13 13 12 12 12 12 12 12 12 12 12 12 13
2 1 1 1 2 2 2 2 2 1 2 2 2 1 1 2 2 3 4 4 4 4 4 8 12 13 13 14 14 14 13 13 13 13 13 13 13 13 13 13 14 14 14
2 1 1 2 2 2 2 2 2 2 1 2 2 2 1 1 2 2 3 3 3 5 4 5 5 7 12 13 14 14 14 14 14 14 14 14 14 14 14 14 14 15 15
2 1 1 1 2 1 2 2 1 2 2 2 1 2 1 1 2 2 2 3 4 3 3 4 4 3 5 11 13 14 14 15 14 14 14 14 14 14 15 15 16 16 16
2 1 2 1 1 1 2 2 2 1 1 2 1 1 2 2 2 2 2 2 3 3 3 4 3 3 3 3 8 13 14 14 15 15 14 14 14 15 15 16 16 17 17
3 2 2 1 2 1 1 1 1 0 1 1 1 1 0 2 3 1 1 2 3 2 3 3 3 3 4 3 4 9 13 14 15 15 15 15 15 15 16 16 17 17 18
3 3 3 3 2 2 2 2 1 1 0 1 1 1 0 0 1 2 2 1 2 3 3 4 3 3 3 3 5 10 12 13 14 15 15 15 15 16 16 16 17 17 18
3 3 3 2 2 2 2 2 2 2 1 0 0 1 1 1 1 2 4 3 3 2 2 3 2 2 3 3 3 8 12 13 14 14 14 15 15 16 16 17 17 18 18
2 3 2 2 2 2 2 2 2 2 1 1 0 0 0 0 1 1 3 4 4 3 3 2 2 2 2 3 6 12 12 13 14 14 14 15 15 16 16 17 17 18 18
1 2 2 2 2 2 2 1 2 2 1 1 1 1 1 1 1 2 3 4 4 4 3 2 2 2 3 3 4 11 11 13 14 14 14 15 15 16 16 17 17 18 18
1 1 1 1 2 2 2 2 1 1 1 1 1 1 1 2 2 2 2 3 4 4 3 4 2 2 3 3 6 11 7 13 14 14 14 15 16 16 17 17 17 17 18
1 1 1 1 1 1 1 1 1 1 1 1 1 2 2 2 2 2 2 2 3 5 6 3 2 2 3 3 7 5 6 12 14 15 15 15 16 16 17 17 17 18 18
1 1 1 1 1 1 1 1 1 1 2 2 2 2 2 2 2 2 2 3 3 5 6 4 4 4 5 5 9 6 7 14 13 14 15 15 16 16 17 17 18 18 18
1 1 1 1 1 1 1 1 1 1 2 2 2 2 3 3 2 2 2 2 3 4 6 6 4 5 5 6 7 6 6 6 7 13 15 15 16 17 17 17 18 18 18
1 1 1 1 1 1 1 1 2 2 2 3 3 3 4 3 3 3 3 3 3 4 5 8 6 5 5 6 6 7 7 6 6 12 14 15 16 16 17 17 18 18 18
1 1 1 1 1 2 1 2 2 2 2 3 3 4 4 4 4 3 3 3 3 4 4 6 7 5 5 5 6 7 7 6 7 9 12 13 15 16 17 17 17 18 18
0 1 1 1 2 2 2 2 2 2 3 3 4 4 4 4 5 5 4 4 4 4 5 5 6 6 5 5 5 6 7 5 6 7 8 10 13 15 16 17 17 17 17
1 1 1 2 2 2 2 2 2 3 3 3 4 4 4 5 6 5 5 5 5 4 5 5 6 6 6 6 6 6 7 7 6 4 5 6 7 7 8 12 14 16 16
1 1 1 2 2 2 4 5 3 3 4 4 4 4 5 5 6 8 8 8 7 6 6 6 6 7 8 7 6 6 7 8 7 3 6 7 5 7 7 6 13 17 17
1 2 2 2 3 4 6 6 5 3 4 4 5 4 4 4 5 5 7 9 8 9 9 7 8 8 8 7 7 8 7 7 8 7 6 8 5 7 7 8 16 17 17
2 2 3 3 3 4 6 6 6 4 4 4 4 4 5 5 5 6 6 7 6 6 8 7 7 7 7 7 6 7 8 7 7 5 4 6 6 7 7 7 13 16 17
2 3 3 3 3 5 6 7 6 3 4 5 5 5 5 5 8 9 7 7 7 6 7 9 9 9 11 10 8 5 4 5 6 5 3 4 5 7 7 6 8 14 16
3 3 3 3 4 5 6 7 6 3 4 4 4 5 6 7 9 10 7 6 7 7 6 6 7 8 7 7 8 5 4 5 5 5 2 3 4 5 7 5 5 6 9
Wind_Direction
34 27 22 18 10 5 7 3 2 1 2 6 16 23 30 30 30 33 22 21 18 16 12 9 8 7 6 6 5 5 4 3 3 3 1 358 355 354 350 345 340 337 333
40 33 22 16 7 357 352 356 357 359 356 8 16 21 27 33 35 35 31 22 24 21 16 13 11 9 8 8 5 4 5 6 6 2 359 356 353 351 348 347 343 335 333
42 40 27 12 353 348 352 360 4 16 17 23 18 20 24 29 33 36 33 30 20 21 19 16 13 9 8 9 8 8 6 5 5 2 359 356 352 348 343 341 338 337 332
33 49 34 2 348 360 6 2 7 13 14 10 5 10 17 30 32 36 36 35 31 23 19 21 18 13 10 9 8 7 5 3 4 2 358 353 350 346 342 338 335 332 331
17 38 28 356 354 13 15 2 9 7 359 353 350 7 18 35 32 42 42 37 36 32 23 20 19 15 11 9 7 4 1 359 358 356 353 350 346 341 339 339 337 334 330
12 21 20 7 9 21 17 8 360 17 2 342 344 357 3 38 49 45 37 30 31 30 25 21 15 8 9 4 2 1 359 356 354 353 350 347 344 343 341 337 335 334 332
7 20 9 13 19 25 13 3 347 15 15 5 3 348 353 37 58 42 33 31 26 21 22 25 20 12 0 360 357 356 356 353 351 349 348 346 343 339 337 336 334 330 328
354 16 24 14 12 14 26 22 15 350 7 23 15 335 325 330 26 18 29 36 20 15 17 13 14 10 3 354 350 352 351 348 346 344 343 342 339 336 334 334 331 330 330
9 11 20 28 19 26 20 14 3 346 277 329 29 72 354 289 322 332 15 27 20 4 359 358 7 1 357 352 338 344 348 345 343 340 339 338 336 333 330 330 328 327 325
32 25 21 28 26 24 16 357 0 333 270 282 331 5 354 204 268 302 312 7 4 350 347 341 344 347 352 349 341 342 343 343 340 337 336 334 331 329 328 327 325 324 323
30 22 23 31 25 17 12 7 4 7 3 333 322 330 328 331 288 266 291 314 325 317 322 314 323 338 348 341 327 335 339 338 336 334 332 330 327 326 325 324 323 322 320
14 12 13 15 12 10 7 4 7 18 8 11 1 352 335 297 283 273 275 294 301 301 300 287 306 319 329 340 337 339 334 333 331 330 329 327 326 323 321 320 319 319 319
344 348 1 5 4 3 8 14 25 18 9 17 329 290 291 278 287 276 272 288 294 295 288 284 283 301 326 333 326 333 329 328 326 325 325 325 323 322 320 319 318 318 319
298 337 358 8 9 12 9 9 17 355 3 357 339 303 292 290 293 284 274 286 298 292 279 282 286 299 318 316 320 327 319 323 323 321 320 321 321 319 318 317 317 317 316
309 3 16 16 7 9 7 9 9 343 347 339 318 306 290 290 290 282 280 269 269 286 289 281 293 302 308 306 316 314 311 314 316 317 317 317 317 317 315 315 314 313 313
327 349 349 359 356 351 349 8 356 347 353 331 321 312 298 288 281 280 277 273 263 263 276 285 286 301 310 312 314 310 303 311 310 310 314 316 315 314 313 313 312 311 312
304 306 316 340 343 342 341 350 330 327 322 320 317 309 300 294 289 285 276 271 271 267 273 286 289 298 299 305 308 302 298 297 298 305 309 312 313 313 311 310 310 310 310
305 302 305 337 332 330 324 316 308 314 304 302 300 298 294 295 290 285 280 276 272 269 272 285 293 295 293 298 299 297 304 303 297 301 306 309 310 311 311 310 310 310 309
309 316 311 301 303 307 306 303 303 305 298 293 294 292 290 291 291 289 282 278 278 281 274 280 289 294 293 299 301 299 296 293 299 301 303 306 308 309 309 309 310 310 307
269 297 298 287 288 295 295 296 300 303 301 299 297 292 290 287 284 285 283 278 278 283 283 282 287 294 296 296 295 300 301 298 300 302 300 304 306 308 307 308 308 307 306
273 271 288 299 300 296 288 302 307 302 300 302 302 298 294 292 287 285 285 284 284 283 284 285 289 295 297 306 305 302 300 305 297 291 297 301 302 299 301 304 306 303 305
298 300 287 291 297 294 296 297 299 302 301 297 297 299 298 293 293 294 294 293 289 285 285 285 287 290 295 300 303 303 305 310 302 300 306 299 297 295 297 296 303 306 307
267 272 276 277 282 282 290 295 296 300 296 292 290 295 297 298 292 291 294 296 295 289 282 279 282 284 291 294 296 296 293 292 289 299 303 291 293 292 296 301 306 306 308
261 264 268 266 275 283 291 295 301 294 288 284 283 284 288 293 294 297 294 292 289 287 286 278 274 279 283 287 282 284 287 290 288 282 290 286 294 294 299 295 298 302 310
265 267 276 265 270 282 286 292 299 296 288 290 289 289 286 289 294 301 302 296 295 294 296 290 289 293 295 298 301 299 294 296 294 290 279 277 295 306 297 285 290 302 308
260 270 275 271 264 270 281 288 293 286 289 295 295 292 286 292 300 304 300 295 294 296 303 305 301 300 298 294 296 285 278 278 287 288 278 291 294 315 304 283 287 298 301